Location: New Plymouth
(39.0670°S, 174.0830°E)
Time: 16:14:58
(UTC+13:00)

Cosmos 1805 Rocket - Pass Details

Date: 24 January 2019
Orbit: 607 x 629 km, 82.5° (Epoch: 19 February)

Event Time Altitude Azimuth Distance (km) Brightness Sun altitude
Rises 21:11:10 0° 190° (S) 2,909 7.6 -5.1°
Reaches altitude 10° 21:13:25 10° 191° (S) 1,994 6.8 -5.5°
Maximum altitude 21:17:50 76° 276° (W) 640 3.8 -6.2°
Drops below altitude 10° 21:22:10 10° 1° (N) 1,963 5.8 -6.9°
Sets 21:24:22 0° 2° (N) 2,859 6.6 -7.3°
